Probability
0 0 0 0 0 0 0 0 0 0 0 0 0 0 0 0 0 0 0 0 0 0 0 0 0 0 0 0 0 0 0 0 0 0 0 0 0 0 0 0 0 0 0 0 0 0 0 0 0
0 0 0 0 0 0 0 0 0 0 0 0 0 0 0 0 0 0 0 0 0 0 0 0 0 0 0 0 0 0 0 0 0 0 0 0 0 0 0 0 0 0 0 0 0 0 0 0 0
0 0 0 0 0 0 0 0 0 0 0 0 0 0 0 0 0 0 0 0 1 0 0 0 0 0 0 0 0 0 0 0 0 0 0 0 0 0 0 0 0 0 0 0 0 0 0 0 0
0 0 0 0 0 0 0 0 0 0 0 0 0 0 0 0 0 0 0 0 0 0 0 0 0 0 0 0 0 0 0 0 0 0 0 0 0 0 0 0 0 0 0 0 0 0 0 0 0
0 0 0 0 0 0 0 0 0 0 0 0 0 0 0 0 0 0 0 0 0 0 0 0 0 0 0 0 0 0 0 0 0 0 0 0 0 0 0 0 0 0 0 0 0 0 0 0 0
0 0 0 0 0 0 0 0 0 0 0 0 0 0 0 0 0 0 0 0 1 1 1 0 0 0 0 0 0 0 0 0 0 0 0 0 0 0 0 0 0 0 0 0 0 0 0 0 0
0 0 0 0 0 0 0 0 0 0 0 0 0 0 0 0 0 0 0 0 1 2 1 0 0 0 0 0 0 0 0 0 0 0 0 0 0 0 0 0 0 0 0 0 0 0 0 0 0
0 0 0 0 0 0 0 0 0 0 0 0 0 0 0 0 0 0 0 0 1 1 1 0 0 0 0 0 0 0 0 0 0 0 0 0 0 0 0 0 0 0 0 0 0 0 0 0 0
0 0 0 0 0 0 0 0 0 0 0 0 0 0 0 0 0 0 0 0 0 0 0 0 0 0 0 0 0 0 0 0 0 0 0 0 0 0 0 0 0 0 0 0 0 0 0 0 0
0 0 0 0 0 0 0 0 0 0 0 0 0 0 1 0 0 0 0 0 0 0 0 0 0 0 0 0 0 0 0 0 0 0 0 0 0 0 0 0 0 0 0 0 0 0 0 0 0
0 0 0 0 0 0 0 0 0 0 0 0 0 0 0 0 0 0 0 0 0 0 0 0 0 0 0 0 0 0 0 0 0 0 0 0 0 0 0 0 0 0 0 0 0 0 0 0 0
0 0 0 0 0 0 0 0 0 0 0 0 0 0 0 0 0 0 0 0 0 0 0 0 0 0 0 0 0 0 0 0 0 0 0 0 0 0 0 0 0 0 0 0 0 0 0 0 0
0 0 0 0 0 0 0 0 0 0 0 0 0 0 0 0 0 0 0 0 0 0 0 0 0 0 0 0 0 0 0 0 0 0 0 0 0 0 0 0 0 0 0 0 0 0 0 0 0
0 0 0 0 0 0 0 0 0 0 0 0 0 0 0 0 0 0 0 0 0 0 0 0 0 0 0 0 0 0 0 0 0 0 0 0 0 0 0 0 0 0 0 0 0 0 0 0 0
0 0 0 0 0 0 0 0 0 0 0 0 0 0 0 0 0 0 0 0 0 0 0 0 0 0 0 0 0 0 0 0 0 0 0 0 0 0 0 0 0 0 0 0 0 0 0 0 0
0 0 0 0 0 0 0 0 0 0 0 0 0 0 0 0 0 0 0 0 0 0 0 0 0 0 0 0 0 0 0 0 0 0 0 0 0 0 0 0 0 0 0 0 0 0 0 0 0
0 0 0 0 0 0 0 0 0 0 0 0 0 0 0 0 0 0 0 0 0 0 0 0 0 0 0 0 0 0 0 0 0 0 0 0 0 0 0 0 0 0 0 0 0 0 0 0 0
0 0 0 0 0 0 0 0 0 0 0 0 0 0 0 0 0 0 0 0 0 0 0 0 0 0 0 0 0 0 0 0 0 0 0 0 0 0 0 0 0 0 0 0 0 0 0 0 0
0 0 0 0 0 0 0 0 0 0 0 0 0 0 0 0 0 0 0 0 0 0 0 1 1 1 0 0 0 0 0 0 0 0 0 0 0 0 0 0 0 0 0 0 0 0 0 0 0
0 0 0 0 0 0 0 0 0 0 0 0 0 0 0 0 0 0 0 1 1 1 0 1 2 2 2 2 1 1 1 0 0 0 0 0 0 0 0 0 0 0 0 0 0 0 0 0 0
0 0 0 0 0 0 0 0 0 0 0 0 0 0 0 0 0 0 0 1 2 2 1 0 1 2 3 3 3 2 2 1 1 1 0 0 0 0 0 0 0 0 0 0 0 0 0 0 0
0 0 0 0 0 0 0 0 0 0 0 0 0 0 0 0 0 0 0 0 1 2 2 1 1 1 2 3 3 3 3 3 2 1 0 0 0 0 0 0 0 0 0 0 0 0 0 0 0
0 0 0 0 0 0 0 0 0 0 0 0 0 0 0 0 0 0 0 0 1 3 4 3 1 0 1 1 2 3 3 3 2 1 0 0 0 0 0 0 0 0 0 0 0 0 0 0 0
0 0 0 0 0 0 0 0 0 0 0 0 0 0 0 0 0 0 0 1 2 3 4 4 2 1 0 0 1 2 2 2 1 0 0 0 0 0 0 0 0 0 0 0 0 0 0 0 0
0 0 0 0 0 0 0 0 0 0 0 0 0 0 0 0 0 0 0 1 2 3 3 3 2 1 0 0 0 1 1 1 0 0 0 0 0 0 0 0 0 0 0 0 0 0 0 0 0
0 0 0 0 0 0 0 0 0 0 0 0 0 0 0 0 0 0 0 1 2 3 1 1 1 1 0 0 0 0 0 0 0 0 0 0 0 0 0 0 0 0 0 0 0 0 0 0 0
0 0 0 0 0 0 0 0 0 0 0 0 0 0 0 0 0 0 0 1 2 2 1 0 0 0 0 0 0 0 0 0 0 0 0 0 0 0 0 0 0 0 0 0 0 0 0 0 0
0 0 0 0 0 0 0 0 0 0 0 0 0 0 0 0 0 0 0 1 2 2 1 0 0 0 0 0 0 0 0 0 0 0 0 0 0 0 0 0 0 0 0 0 0 0 0 0 0
0 0 0 0 0 0 0 0 0 0 0 0 0 0 0 0 0 0 0 1 1 2 2 1 0 0 0 0 0 0 0 0 0 0 0 0 0 0 0 0 0 0 0 0 0 0 0 0 0
0 0 0 0 0 0 0 0 0 0 0 0 0 0 0 0 0 0 0 0 1 2 2 1 0 0 0 0 0 0 0 0 0 0 0 0 0 0 0 0 0 0 0 0 0 0 0 0 0
Wind_Speed
14 11 6 3 3 5 7 3 1 3 4 5 5 4 5 7 6 6 4 8 13 15 15 13 13 13 13 12 11 11 11 11 11 11 11 10 10 10 10 10 10 11 11 11 11 11 11 11 11
11 9 4 3 4 6 4 2 3 6 6 4 3 1 2 7 8 7 5 9 13 15 14 13 13 13 13 12 11 11 10 10 10 10 10 10 9 9 9 9 9 10 10 10 10 10 10 10 9
10 7 4 4 5 6 2 5 7 8 6 2 2 2 4 6 7 6 7 10 13 13 12 13 13 13 13 12 11 10 10 10 10 10 10 9 9 9 9 9 9 9 9 9 9 9 9 8 8
5 3 4 5 8 6 3 3 4 5 4 1 1 4 6 6 5 6 8 9 12 12 12 14 13 12 12 11 11 10 9 9 9 9 9 9 9 8 8 8 8 8 8 8 8 7 7 7 6
3 4 5 6 9 6 2 3 2 1 3 3 0 3 7 5 8 9 7 9 10 10 12 13 12 11 11 10 10 10 9 9 8 8 8 8 8 8 8 7 7 7 7 6 6 6 5 5 4
3 4 5 7 8 4 1 2 1 2 2 3 1 2 6 5 6 6 6 7 9 10 12 12 10 10 10 9 8 8 8 8 7 8 8 8 7 7 7 6 6 6 6 6 5 4 4 4 3
3 4 7 9 7 3 1 2 1 1 1 2 2 2 7 5 5 5 6 6 8 9 10 9 9 9 9 8 8 7 7 6 6 7 7 7 6 5 5 5 5 5 5 5 4 3 3 2 1
3 4 7 8 7 3 2 3 2 3 3 4 3 3 4 5 5 5 5 6 7 7 8 8 8 8 7 7 8 8 7 7 6 6 6 6 6 5 5 5 5 5 5 4 4 3 3 2 2
3 4 6 5 4 2 3 2 2 3 3 5 6 7 7 9 7 6 5 5 5 5 6 7 7 7 7 7 8 8 7 7 7 6 7 7 4 5 5 6 6 5 5 4 4 4 4 3 3
3 4 5 3 4 4 4 4 2 1 2 3 5 8 8 7 6 6 5 5 5 4 4 4 6 6 6 6 6 5 5 5 5 5 6 5 4 4 5 7 8 7 5 5 5 6 5 4 3
3 4 3 3 5 5 5 5 4 1 1 1 2 5 6 6 5 4 4 4 5 5 4 3 3 4 5 4 5 3 3 4 5 6 6 5 3 2 3 3 4 4 5 4 5 5 4 4 3
4 3 3 3 4 3 3 4 3 2 2 5 4 6 5 4 4 4 4 3 3 4 4 3 3 3 4 3 3 3 3 3 3 4 6 4 2 2 3 3 4 4 3 4 4 3 4 4 3
5 4 3 3 2 2 3 3 3 3 3 4 5 5 4 3 2 2 2 3 3 3 4 4 3 3 3 3 3 3 3 3 3 3 4 4 3 3 3 2 3 3 3 3 3 3 4 3 3
3 3 3 3 3 2 2 3 3 3 2 1 2 2 2 2 2 2 2 2 3 3 3 3 4 4 3 3 2 2 3 3 3 3 4 5 3 3 3 3 3 3 3 3 3 3 3 3 3
4 4 4 5 4 3 2 3 4 4 2 1 0 1 1 0 1 1 2 2 2 3 3 3 3 3 3 3 3 2 2 2 2 3 4 4 4 4 3 3 3 3 3 3 2 3 2 2 3
5 4 5 4 4 3 3 6 2 2 3 3 2 1 1 1 1 1 1 2 2 2 3 3 3 3 3 3 3 2 2 2 2 2 3 4 4 4 4 3 3 3 3 2 2 2 2 3 3
4 5 5 3 3 2 4 4 2 2 2 3 3 2 2 1 1 0 0 1 1 2 2 3 3 3 3 3 3 2 2 2 2 2 2 3 4 4 4 3 3 3 3 3 3 3 2 3 3
3 4 5 4 1 1 3 5 3 3 2 3 3 2 2 1 1 0 0 1 1 2 2 2 2 3 3 3 2 2 2 2 2 2 2 3 3 4 4 3 4 4 3 3 3 4 3 2 2
6 5 6 4 3 2 4 6 6 4 3 3 3 2 2 1 1 1 1 1 2 2 1 1 2 2 2 2 2 3 3 2 2 2 3 3 3 3 3 3 4 4 4 4 4 4 4 3 2
5 6 6 4 4 3 3 7 6 4 4 3 3 2 3 2 1 1 1 1 1 1 1 0 1 1 2 2 2 2 2 2 2 2 3 3 3 4 3 3 3 3 3 4 5 4 3 3 3
4 5 5 4 4 3 4 6 6 5 5 3 2 2 2 2 2 0 1 1 1 1 0 1 1 1 2 1 1 1 1 1 2 2 3 3 3 3 3 4 3 3 3 4 5 5 6 5 4
5 3 4 4 3 2 2 4 4 5 5 4 3 3 3 3 2 1 0 1 1 0 0 1 1 1 1 1 1 2 2 3 3 2 2 3 3 3 3 3 4 4 4 3 4 4 5 5 4
3 4 3 4 4 4 4 5 5 4 5 4 3 3 3 2 2 1 0 1 1 0 0 1 1 1 1 1 2 3 3 2 2 2 2 2 2 3 3 3 3 3 3 4 4 4 4 4 5
3 3 3 3 2 4 6 6 5 3 3 2 2 2 1 1 2 1 1 1 0 0 0 0 1 1 1 1 1 2 3 2 2 2 2 2 2 2 3 3 3 2 2 3 4 4 5 4 5
2 1 1 2 4 5 4 5 5 1 1 2 2 2 2 2 2 2 1 2 1 1 0 0 0 1 1 1 1 1 2 2 2 2 2 2 2 2 2 2 2 2 3 3 3 3 3 3 3
3 2 1 2 2 2 2 6 2 3 4 4 4 3 3 3 3 3 2 1 1 2 2 1 1 1 2 1 1 1 1 1 1 2 2 2 2 2 1 2 2 2 3 2 2 2 2 2 3
1 1 2 1 1 2 5 3 2 2 2 2 3 3 3 3 3 3 3 2 2 2 2 2 2 2 2 2 2 1 1 1 2 2 1 1 1 1 1 2 2 2 2 2 2 2 2 2 3
1 1 1 1 2 3 5 5 2 1 1 1 2 3 3 3 2 3 3 3 2 2 2 2 2 2 2 2 2 3 2 2 2 2 2 2 1 1 1 1 2 2 2 2 2 2 2 2 3
0 1 1 1 2 2 4 2 2 2 1 1 2 3 3 3 3 2 2 3 2 2 3 2 3 3 3 3 3 3 2 2 2 2 2 2 2 1 1 2 2 2 2 2 2 2 2 3 3
1 1 1 1 2 3 4 4 1 4 4 4 4 3 3 3 3 3 2 3 3 3 3 3 3 3 3 3 3 3 3 2 2 2 2 2 2 2 2 1 1 2 2 2 3 3 3 3 3
Wind_Direction
311 294 273 265 246 237 247 239 102 85 71 55 43 15 15 38 39 89 141 124 119 126 136 142 139 140 138 136 134 132 130 129 128 124 119 114 110 108 104 102 101 101 99 95 93 90 88 86 84
301 295 278 249 250 254 240 177 97 72 78 77 83 43 48 74 80 105 120 117 123 128 139 143 138 139 140 139 137 135 133 131 131 128 124 121 117 113 111 106 105 103 101 99 96 93 91 88 85
285 270 266 250 248 263 327 48 70 78 87 99 118 60 40 57 85 105 117 127 125 129 137 135 140 140 142 143 141 139 135 134 132 130 126 125 124 119 117 112 108 106 106 103 99 96 92 90 88
287 254 240 251 260 265 308 36 67 100 110 98 73 101 82 42 55 99 122 131 125 129 130 136 142 143 145 146 146 144 142 140 135 133 131 125 124 124 121 118 115 112 111 109 106 102 97 94 91
252 252 239 248 255 265 332 41 31 100 139 141 172 92 89 58 74 104 127 128 126 127 127 141 142 144 146 149 150 149 147 145 142 140 135 130 129 129 128 126 124 122 120 119 117 112 106 102 100
263 249 245 246 250 244 242 65 32 312 91 100 125 112 90 94 93 115 126 124 125 124 128 140 141 143 146 149 149 150 151 150 148 144 141 138 138 138 134 133 131 128 126 126 125 122 117 110 110
264 265 256 264 269 268 296 62 12 334 29 75 12 86 107 98 101 120 122 121 120 123 130 142 150 150 150 152 154 154 153 150 147 145 146 145 146 143 138 139 143 142 140 138 137 136 139 140 140
293 278 256 259 268 280 11 76 41 357 14 61 40 47 109 117 118 121 121 120 120 127 136 147 157 160 161 160 160 161 160 158 153 148 144 144 146 149 155 160 160 160 155 149 150 155 162 167 180
276 253 252 262 281 313 22 49 58 18 32 59 57 51 84 113 117 114 112 112 120 133 142 152 160 163 165 167 165 163 166 168 160 155 159 161 175 176 178 178 167 168 168 172 179 188 195 197 210
222 242 249 292 322 346 9 2 11 43 44 65 71 73 93 111 121 132 140 145 145 149 149 154 164 166 167 171 158 171 174 170 182 175 175 195 203 183 170 160 165 173 180 191 204 209 214 221 219
221 242 274 310 343 358 356 349 356 327 355 41 112 104 108 116 124 139 149 156 160 160 157 161 172 170 169 161 159 172 175 173 192 185 188 198 193 166 149 150 164 181 193 205 209 210 222 223 216
252 271 289 304 344 356 340 322 330 342 340 13 44 113 120 134 147 154 159 158 153 158 165 172 176 173 175 170 171 172 175 174 184 184 189 187 180 183 175 174 178 184 193 205 199 204 217 222 227
246 261 270 281 310 339 331 318 317 323 342 20 35 76 116 125 137 154 161 156 152 160 167 172 172 173 179 182 184 180 184 181 183 176 185 186 180 189 191 187 184 190 191 195 207 213 215 217 229
299 291 280 277 264 290 310 302 287 288 313 9 50 72 92 129 143 146 158 155 160 168 171 172 176 182 173 177 188 189 188 187 186 180 187 191 187 189 189 193 191 203 201 200 205 216 214 215 218
288 275 265 256 248 238 268 275 250 261 294 306 17 77 66 54 146 172 180 176 171 173 169 166 175 179 175 182 194 199 192 187 194 191 191 193 193 193 192 197 196 206 203 201 209 231 222 224 221
252 246 245 232 229 221 218 251 261 236 216 246 252 229 181 259 219 215 181 159 165 164 169 170 171 176 180 186 200 207 205 195 196 196 197 199 202 199 197 203 208 204 193 190 206 222 226 233 231
229 236 238 237 224 216 215 253 277 292 232 238 242 241 212 207 254 237 165 131 147 157 161 170 170 179 188 191 197 197 196 198 195 189 193 207 210 205 199 204 209 201 195 198 209 219 218 233 236
246 254 260 252 272 227 241 259 269 277 276 265 258 253 239 200 211 222 218 124 136 144 155 162 169 187 192 186 188 194 201 204 197 199 209 206 207 209 210 207 209 202 198 204 209 218 223 226 229
297 295 283 298 328 309 262 271 270 259 248 257 267 273 269 236 203 182 179 104 109 100 103 162 176 191 186 186 195 204 213 211 209 211 211 212 202 199 207 218 216 211 207 205 206 209 223 227 218
277 281 288 308 345 324 293 284 277 260 253 237 242 256 276 282 253 146 112 86 100 110 118 183 186 203 209 211 204 212 209 208 210 212 216 217 212 205 203 201 214 219 219 214 211 208 213 222 204
268 264 282 294 319 281 286 276 243 237 241 247 253 256 281 290 281 270 133 114 107 93 82 323 248 229 235 239 202 210 208 213 220 227 220 220 216 211 206 207 206 217 224 225 220 210 210 220 220
270 294 295 293 289 268 253 281 241 222 221 228 246 259 261 279 280 288 115 101 95 91 42 286 275 256 243 221 206 200 211 224 228 224 223 222 214 212 212 214 216 218 221 229 229 223 220 214 222
300 304 271 273 276 279 248 263 253 221 236 225 227 240 242 272 287 285 11 114 99 108 208 246 255 258 254 228 214 212 229 235 232 220 208 216 211 208 209 216 223 231 229 231 227 226 228 223 224
296 291 263 255 255 252 228 239 262 216 235 229 219 249 317 10 352 346 353 35 81 104 89 279 280 291 281 238 233 226 240 249 246 240 227 223 222 216 211 215 222 230 238 244 240 233 232 230 230
309 279 222 209 214 235 200 229 246 174 37 36 34 24 23 24 11 355 351 358 9 25 22 309 316 305 299 255 249 254 254 250 240 242 237 237 236 231 226 222 226 236 242 247 252 247 246 234 231
273 259 222 239 249 292 226 231 233 86 55 40 36 27 17 18 16 7 357 5 12 9 10 355 333 321 325 316 304 300 299 277 266 262 261 256 254 239 223 221 232 237 244 251 242 249 256 246 234
280 277 292 286 307 274 251 253 254 95 56 32 18 19 10 10 12 11 5 14 30 17 3 1 350 346 340 341 348 357 1 332 316 310 293 286 287 286 239 223 227 237 242 244 240 235 243 252 244
272 331 321 243 249 261 257 241 237 159 258 319 359 355 356 359 1 12 9 11 22 17 4 7 10 357 355 2 2 6 8 1 346 342 331 325 319 304 267 262 240 233 236 240 241 249 253 248 254
187 185 271 267 284 274 283 277 32 63 65 23 7 6 352 349 352 3 2 5 23 27 20 14 21 19 13 11 7 6 0 9 4 354 338 328 319 303 276 268 267 253 242 237 232 238 246 247 256
249 249 210 230 269 263 279 275 31 44 39 33 9 354 346 353 355 352 355 7 20 24 20 17 14 16 9 8 10 5 359 6 4 352 345 340 332 330 307 280 278 281 271 253 240 247 249 246 250